TimeCDT,TemperatureF,Dew PointF,Humidity,Sea Level PressureIn,VisibilityMPH,Wind Direction,Wind SpeedMPH,Gust SpeedMPH,PrecipitationIn,Events,Conditions,WindDirDegrees,DateUTC
12:15 AM,41.7,27.5,57,30.18,10.0,Calm,Calm,-,N/A,,Clear,0,2013-03-15 05:15:00
12:35 AM,45.0,28.0,52,30.18,10.0,Calm,Calm,-,N/A,,Clear,0,2013-03-15 05:35:00
12:55 AM,41.2,29.3,63,30.18,10.0,SW,4.6,-,N/A,,Clear,230,2013-03-15 05:55:00
1:15 AM,45.7,28.8,52,30.17,10.0,Calm,Calm,-,N/A,,Clear,0,2013-03-15 06:15:00
1:35 AM,38.1,27.5,66,30.17,10.0,Calm,Calm,-,N/A,,Clear,0,2013-03-15 06:35:00
1:55 AM,39.4,27.0,61,30.16,10.0,WNW,5.8,-,N/A,,Clear,290,2013-03-15 06:55:00
2:15 AM,37.6,27.5,67,30.17,10.0,WSW,10.4,-,N/A,,Clear,250,2013-03-15 07:15:00
2:35 AM,40.6,27.1,59,30.16,10.0,West,6.9,-,N/A,,Clear,280,2013-03-15 07:35:00
2:55 AM,38.1,27.1,65,30.15,10.0,West,4.6,-,N/A,,Clear,280,2013-03-15 07:55:00
3:15 AM,38.5,27.3,64,30.15,10.0,West,6.9,-,N/A,,Clear,270,2013-03-15 08:15:00
3:35 AM,37.6,27.3,66,30.14,10.0,West,10.4,-,N/A,,Clear,260,2013-03-15 08:35:00
3:55 AM,40.1,28.4,63,30.14,10.0,WSW,4.6,-,N/A,,Clear,250,2013-03-15 08:55:00
4:15 AM,40.3,27.3,60,30.13,10.0,West,5.8,-,N/A,,Clear,260,2013-03-15 09:15:00
4:35 AM,37.4,27.0,66,30.13,10.0,WSW,5.8,-,N/A,,Clear,240,2013-03-15 09:35:00
4:55 AM,37.2,27.7,68,30.12,10.0,Calm,Calm,-,N/A,,Clear,0,2013-03-15 09:55:00
5:15 AM,37.2,27.1,67,30.11,10.0,West,8.1,-,N/A,,Clear,270,2013-03-15 10:15:00
5:35 AM,37.8,27.9,67,30.12,10.0,SW,5.8,-,N/A,,Clear,220,2013-03-15 10:35:00
5:55 AM,36.3,27.1,69,30.12,10.0,SW,5.8,-,N/A,,Clear,220,2013-03-15 10:55:00
6:15 AM,37.0,27.1,67,30.12,10.0,WSW,8.1,-,N/A,,Clear,240,2013-03-15 11:15:00
6:35 AM,36.5,26.4,67,30.11,10.0,West,8.1,-,N/A,,Clear,270,2013-03-15 11:35:00
6:55 AM,35.6,26.6,70,30.10,10.0,West,6.9,-,N/A,,Clear,270,2013-03-15 11:55:00
7:15 AM,35.2,26.6,71,30.10,10.0,WSW,6.9,-,N/A,,Clear,250,2013-03-15 12:15:00
7:35 AM,35.2,26.2,70,30.10,10.0,West,6.9,-,N/A,,Clear,260,2013-03-15 12:35:00
7:55 AM,35.4,27.1,72,30.09,10.0,West,8.1,-,N/A,,Clear,260,2013-03-15 12:55:00
8:15 AM,37.2,27.5,68,30.08,10.0,West,8.1,-,N/A,,Clear,260,2013-03-15 13:15:00
8:35 AM,40.5,29.1,64,30.08,10.0,West,6.9,-,N/A,,Clear,260,2013-03-15 13:35:00
8:55 AM,44.4,30.2,57,30.08,10.0,West,6.9,-,N/A,,Clear,260,2013-03-15 13:55:00
9:15 AM,49.6,30.0,47,30.08,10.0,WSW,5.8,-,N/A,,Clear,240,2013-03-15 14:15:00
9:35 AM,54.1,29.3,39,30.08,10.0,WSW,5.8,-,N/A,,Clear,250,2013-03-15 14:35:00
10:55 AM,67.1,28.4,23,30.08,10.0,SW,15.0,-,N/A,,Clear,220,2013-03-15 15:55:00
11:15 AM,69.3,28.4,22,30.07,10.0,WSW,15.0,-,N/A,,Clear,250,2013-03-15 16:15:00
11:35 AM,72.7,26.6,18,30.06,10.0,WSW,16.1,23.0,N/A,,Clear,250,2013-03-15 16:35:00
11:55 AM,74.5,26.1,17,30.05,10.0,WSW,17.3,20.7,N/A,,Clear,250,2013-03-15 16:55:00
12:15 PM,75.6,25.3,16,30.04,10.0,WSW,16.1,19.6,N/A,,Clear,250,2013-03-15 17:15:00
12:35 PM,77.5,23.7,14,30.03,10.0,WSW,15.0,19.6,N/A,,Clear,250,2013-03-15 17:35:00
12:55 PM,79.0,21.6,12,30.02,10.0,West,19.6,24.2,N/A,,Clear,280,2013-03-15 17:55:00
1:15 PM,80.4,20.3,11,30.01,10.0,WSW,11.5,23.0,N/A,,Clear,250,2013-03-15 18:15:00
1:35 PM,81.1,20.3,10,30.00,10.0,WSW,17.3,21.9,N/A,,Clear,240,2013-03-15 18:35:00
1:55 PM,82.4,20.5,10,29.99,10.0,West,12.7,-,N/A,,Clear,260,2013-03-15 18:55:00
2:15 PM,82.8,20.7,10,29.97,10.0,West,11.5,28.8,N/A,,Clear,280,2013-03-15 19:15:00
2:35 PM,82.6,19.6,10,29.96,10.0,SW,13.8,19.6,N/A,,Clear,230,2013-03-15 19:35:00
2:55 PM,82.9,20.8,10,29.95,10.0,West,9.2,-,N/A,,Clear,260,2013-03-15 19:55:00
3:15 PM,82.4,20.3,10,29.94,10.0,WNW,15.0,18.4,N/A,,Clear,290,2013-03-15 20:15:00
3:35 PM,82.9,18.3,9,29.92,10.0,NW,10.4,17.3,N/A,,Clear,310,2013-03-15 20:35:00
3:55 PM,82.6,16.3,8,29.92,10.0,WNW,15.0,21.9,N/A,,Clear,290,2013-03-15 20:55:00
4:15 PM,81.9,15.4,8,29.91,10.0,NW,13.8,19.6,N/A,,Clear,310,2013-03-15 21:15:00
4:35 PM,81.5,14.2,8,29.91,10.0,NW,15.0,20.7,N/A,,Clear,310,2013-03-15 21:35:00
4:55 PM,82.9,14.0,8,29.90,10.0,WNW,12.7,-,N/A,,Clear,300,2013-03-15 21:55:00
5:15 PM,82.4,13.6,8,29.90,10.0,NW,11.5,-,N/A,,Clear,310,2013-03-15 22:15:00
5:35 PM,81.7,15.8,9,29.89,10.0,NW,13.8,-,N/A,,Clear,310,2013-03-15 22:35:00
6:15 PM,81.1,14.2,8,29.88,10.0,NW,9.2,-,N/A,,Clear,320,2013-03-15 23:15:00
6:35 PM,81.0,18.5,10,29.88,10.0,NW,8.1,-,N/A,,Clear,310,2013-03-15 23:35:00
6:55 PM,79.7,19.6,11,29.88,10.0,NW,8.1,-,N/A,,Clear,320,2013-03-15 23:55:00
7:15 PM,77.2,22.3,13,29.88,10.0,NW,6.9,-,N/A,,Clear,310,2013-03-16 00:15:00
7:35 PM,73.4,23.2,15,29.88,10.0,NW,6.9,-,N/A,,Clear,320,2013-03-16 00:35:00
7:55 PM,70.5,25.2,18,29.88,10.0,NW,5.8,-,N/A,,Clear,310,2013-03-16 00:55:00
8:15 PM,69.1,25.5,19,29.88,10.0,Calm,Calm,-,N/A,,Clear,0,2013-03-16 01:15:00
8:35 PM,65.1,26.2,23,29.88,10.0,Calm,Calm,-,N/A,,Clear,0,2013-03-16 01:35:00
8:55 PM,64.6,23.4,21,29.88,10.0,Calm,Calm,-,N/A,,Clear,0,2013-03-16 01:55:00
9:15 PM,62.1,26.2,26,29.87,10.0,South,3.5,-,N/A,,Clear,190,2013-03-16 02:15:00
9:35 PM,60.8,24.1,25,29.87,10.0,Calm,Calm,-,N/A,,Clear,0,2013-03-16 02:35:00
9:55 PM,56.5,26.8,32,29.87,10.0,South,3.5,-,N/A,,Clear,190,2013-03-16 02:55:00
10:15 PM,57.7,25.3,29,29.87,5.0,SSW,4.6,-,N/A,,Haze,210,2013-03-16 03:15:00
10:35 PM,57.7,22.5,26,29.87,7.0,SSW,5.8,-,N/A,,Clear,210,2013-03-16 03:35:00
10:55 PM,55.2,22.8,28,29.87,10.0,SSW,6.9,-,N/A,,Clear,210,2013-03-16 03:55:00
11:15 PM,53.2,23.0,31,29.87,10.0,SSW,3.5,-,N/A,,Clear,210,2013-03-16 04:15:00
11:35 PM,50.5,25.0,37,29.86,10.0,Calm,Calm,-,N/A,,Clear,0,2013-03-16 04:35:00
11:55 PM,43.9,23.9,45,29.86,10.0,NNW,4.6,-,N/A,,Clear,330,2013-03-16 04:55:00